Home   Weather   Sunrise Manor   Past weeks

Flag for USA Past Weather in Sunrise Manor, Nevada, USA — Yesterday and Last 2 Weeks

Now
77 °F

Passing clouds.


Feels Like: 78 °F
Forecast: 71 / 92 °F
Wind: 2 mph from Northeast

Location: Nellis Air Force Base

Current Time: Oct 1, 2016 at 1:55:14 AM

Latest Report: Oct 1, 2016 at 12:58 AM


Visibility: 10 mi

Pressure: 29.88 "Hg (28.04 "Hg at 555m altitude)

Humidity: 37%

Dew Point: 49 °F

Location of Sunrise ManorLocation

Past Weather in Sunrise Manor — Graph

°F

Sunrise Manor Temperature Yesterday

Maximum temperature yesterday: 91 °F (at 3:58 PM)
Minimum temperature yesterday: 74 °F (at 5:58 AM)
Average temperature yesterday: 82 °F

High & Low Weather Summary for the Past Weeks

 TemperatureHumidityPressure
High99 °F (Sep 19, 3:58 PM)77% (Sep 22, 3:58 AM)30.21 "Hg (Sep 22, 3:58 AM)
Low62 °F (Sep 24, 1:58 AM)4% (Sep 22, 3:58 PM)29.57 "Hg (Sep 22, 4:58 PM)
Average78 °F28%29.93 "Hg
* Reported Sep 16 12:58 AM — Oct 1 12:58 AM, Sunrise Manor, Weather by CustomWeather, © 2016

Note: Actual official high and low records may vary slightly from our data, if they occured in-between our weather recording intervals... More about our weather records

Advertising

Sunrise Manor Weather History for the Previous 24 Hours

Scroll right to see more
 ConditionsComfort  
Time TempWeatherWind HumidityBarometerVisibility
12:58 AM
Sat, Oct 1
77 °FPassing clouds.2 mph37%29.88 "Hg10 mi
11:58 PM
Fri, Sep 30
79 °FPassing clouds.1 mph35%29.87 "Hg10 mi
10:58 PM81 °FClear.2 mph33%29.87 "Hg10 mi
9:58 PM83 °FClear.3 mph31%29.86 "Hg10 mi
8:58 PM85 °FClear.7 mph29%29.85 "Hg10 mi
7:58 PM87 °FClear.9 mph27%29.85 "Hg10 mi
6:58 PM87 °FClear.6 mph25%29.85 "Hg10 mi
5:58 PM89 °FSunny.6 mph24%29.84 "Hg10 mi
4:58 PM91 °FSunny.12 mph23%29.85 "Hg10 mi
3:58 PM91 °FSunny.7 mph22%29.87 "Hg10 mi
2:58 PM90 °FSunny.2 mph22%29.89 "Hg10 mi
1:58 PM90 °FSunny.2 mph26%29.92 "Hg10 mi
12:58 PM87 °FSunny.1 mph29%29.97 "Hg10 mi
11:58 AM86 °FSunny.7 mph30%30.01 "Hg10 mi
10:58 AM84 °FSunny.8 mph37%30.02 "Hg10 mi
9:58 AM82 °FSunny.9 mph40%30.04 "Hg10 mi
8:58 AM80 °FSunny.14 mph43%30.05 "Hg10 mi
7:58 AM75 °FPassing clouds.10 mph48%30.04 "Hg10 mi
6:58 AM74 °FPartly sunny.8 mph49%30.03 "Hg10 mi
5:58 AM74 °FPassing clouds.7 mph49%30.01 "Hg10 mi
4:58 AM76 °FPassing clouds.9 mph46%30.01 "Hg10 mi
3:58 AM75 °FClear.9 mph45%29.99 "Hg10 mi
2:58 AM76 °FPassing clouds.10 mph41%29.98 "Hg10 mi
1:58 AM76 °FPassing clouds.9 mph41%29.99 "Hg10 mi
Weather by CustomWeather, © 2016

See weather overviewHow to use our weather pages